Overview Statistics Trail Chart Weather Telemetry Raw packets
 

This is the latest recevied weather packets stored in our database for station/object OK2ILA-10. If no packets are shown the sender has not sent any weather packets the latest 10 day(s).

<< 9 10 11 12 13 14 15 >>
Time Temp. Humidity Pressure Rain* Wind** Luminosity Snow
1788594718 16.11° C 69% 1018.8 hPa - - - -
1788594129 15.56° C 71% 1018.8 hPa - - - -
1788594118 15.56° C 71% 1018.8 hPa - - - -
1788593522 15.56° C 72% 1018.9 hPa - - - -
1788593518 15.56° C 72% 1018.9 hPa - - - -
1788592921 15.56° C 72% 1019.1 hPa - - - -
1788592917 15.56° C 72% 1019.1 hPa - - - -
1788592317 15.56° C 72% 1019 hPa - - - -
1788591721 16.11° C 72% 1018.8 hPa - - - -
1788591717 16.11° C 72% 1018.8 hPa - - - -
1788591121 16.11° C 72% 1018.6 hPa - - - -
1788591117 16.11° C 72% 1018.6 hPa - - - -
1788590516 16.11° C 72% 1018.6 hPa - - - -
1788589916 16.11° C 72% 1018.7 hPa - - - -
1788589316 16.11° C 71% 1018.9 hPa - - - -
1788588716 16.11° C 70% 1017.9 hPa - - - -
1788588128 16.11° C 69% 1017.5 hPa - - - -
1788588115 16.11° C 69% 1017.5 hPa - - - -
1788587515 16.11° C 66% 1017.6 hPa - - - -
1788586915 16.67° C 64% 1018.1 hPa - - - -
1788586321 16.67° C 62% 1017.9 hPa - - - -
1788586315 16.67° C 62% 1017.9 hPa - - - -
1788585714 17.22° C 61% 1018.1 hPa - - - -
1788585123 17.22° C 61% 1018.1 hPa - - - -
1788585114 17.22° C 61% 1018.1 hPa - - - -

* Rain since midnight (hover to see other rain measurements)
** Current wind speed in m/s (hover to see current wind gust speed)